User: anonymous   Login
Location: Unspecified
(0.0000°N, 0.0000°E)
Time: 15:51:25
(UTC+00:00)
Language:

Mika/P068 - Orbit

View from above orbital plane
View from above orbital plane
View from above satellite
View from above satellite

Ground track
Ground track

The orbit data is extracted from the following two-line orbital elements,

1 04345U 70017  B 72223.31872341  .00061782 +21452-6 +00000-0 0 03073
2 04345 005.4426 232.5463 0616696 313.6683 041.3904 14.45247545124771
Epoch (UTC): 10 August 1972 07:38:57
Eccentricity: 0.0616696
inclination: 5.4426°
perigee height: 302 km
apogee height: 1180 km
right ascension of ascending node: 232.5463°
argument of perigee: 313.6683°
revolutions per day: 14.45247545
mean anomaly at epoch: 41.3904°
orbit number at epoch: 12477

The dashed part of the orbit path shows where the satellite is in the earth's shadow,  

DLR